Location: Bottenau
(48.5138°N, 8.0462°E)
Time: 06:29:15
(UTC+00:00)

ATLAS 3B R/B - Pass Details

Date: 26 July 2021
Orbit: 1001 x 1194 km, 63.8° (Epoch: 09 September)

Event Time Altitude Azimuth Distance (km) Brightness Sun altitude
Rises 21:12:08 0° 317° (NW) 3,911 7.5 -15.2°
Reaches altitude 10° 21:14:50 10° 313° (NW) 2,979 6.3 -15.4°
Maximum altitude 21:21:38 51° 240° (WSW) 1,416 3.3 -16.1°
Enters shadow 21:26:37 20° 174° (S) 2,405 4.0 -16.5°
